[[{"header":{"parameterUnit":"m.s-1","parameterCategory":1,"la1":30.2991,"la2":30.254,"lo1":-89.0895,"lo2":-89.0444,"dy":0.0017,"dx":0.0017,"nx":28,"ny":28,"refTime":"2024-11-23T09:00:00:Z","depth":0,"parameterNumber":2,"parameterNumberName":"U-component_of_WINDS"},"data":[0,0,0,0,0,0,0,0,0,0,0,0,0,0,0,0,0,0,0,0,0,0,0,0,0,0,0,0,0,0,0,0,0,0,0,0,0,0,0,0,0,0,0,0,0,0,0,0,0,0,0,0,0,0,0,0,0,0,-0.2293,-0.2292,0,-0.2211,-0.221,-0.2209,-0.2155,-0.2154,-0.2154,-0.2154,-0.2069,-0.2067,-0.2065,0,0,0,0,0,0,0,0,0,0,0,0,0,-0.2402,-0.24,-0.2293,-0.2292,-0.2291,-0.2211,-0.221,-0.2209,-0.2155,-0.2154,-0.2154,-0.2153,-0.207,-0.2067,-0.2065,0,0,0,0,0,0,0,0,0,0,0,0,0,-0.2341,-0.24,-0.2293,-0.2254,-0.225,-0.2211,-0.221,-0.2208,-0.2155,-0.2154,-0.2154,-0.2153,-0.207,-0.2068,-0.2065,-0.2058,0,0,-0.2056,-0.2055,0,0,0,0,0,0,0,0,-0.2344,-0.2337,-0.2261,-0.2257,-0.2252,-0.2192,-0.2217,-0.2158,-0.2155,-0.2191,-0.2154,-0.2153,-0.211,-0.2104,-0.209,-0.2054,-0.205,-0.2056,-0.2054,-0.2053,-0.2052,0,0,0,0,0,0,0,-0.2349,-0.234,-0.226,-0.226,-0.2254,-0.2241,-0.2231,-0.2206,-0.2155,-0.2188,-0.2184,-0.2175,-0.2108,-0.2093,-0.2088,-0.2049,-0.2056,-0.2053,-0.2052,-0.205,-0.2003,-0.2004,0,0,0,0,0,0,-0.2359,-0.2344,-0.2263,-0.2258,-0.2298,-0.2239,-0.2229,-0.2212,-0.2155,-0.2146,-0.2175,-0.2172,-0.2098,-0.2091,-0.2085,-0.2073,-0.2053,-0.205,-0.2048,-0.2003,-0.2003,-0.2004,0,0,0,0,0,0,-0.2362,-0.2352,-0.2266,-0.23,-0.2288,-0.2238,-0.222,-0.2211,-0.2196,-0.2145,-0.2136,-0.2169,-0.2097,-0.2089,-0.2065,-0.2069,-0.2049,-0.2046,-0.2002,-0.2003,-0.2004,-0.205,0,0,0,0,0,0,-0.2365,-0.2354,-0.2351,-0.23,-0.2286,-0.2249,-0.222,-0.221,-0.2191,-0.2187,-0.2137,-0.2129,-0.2096,-0.207,-0.2062,-0.2065,-0.2044,-0.2002,-0.2003,-0.2003,-0.2048,-0.2052,-0.2056,0,0,0,0,0,-0.2369,-0.2367,-0.2351,-0.2341,-0.2281,-0.2249,-0.2241,-0.2204,-0.2192,-0.2188,-0.2156,-0.213,-0.207,-0.2068,-0.2059,-0.2061,-0.2001,-0.2002,-0.2003,-0.2046,-0.2052,-0.2056,0,0,0,0,0,0,-0.2419,-0.2359,-0.2341,-0.2322,-0.2291,-0.224,-0.2234,-0.221,-0.2182,-0.2179,-0.2134,-0.2123,-0.2104,-0.208,-0.2079,-0.2051,-0.2033,-0.2032,-0.2068,-0.2073,-0.2077,-0.2083,-0.2042,0,0,0,0,0,-0.2428,-0.2406,-0.2355,-0.2344,-0.2329,-0.2285,-0.2269,-0.2243,-0.2209,-0.2195,-0.2161,-0.2129,-0.2102,-0.2086,-0.2059,-0.2044,-0.2033,-0.2041,-0.2045,-0.2049,-0.2049,-0.2039,-0.2043,-0.2007,-0.2007,-0.2007,0,0,-0.2446,-0.2411,-0.24,-0.2353,-0.2326,-0.2305,-0.2274,-0.2253,-0.2237,-0.2192,-0.2168,-0.2142,-0.2102,-0.2084,-0.2073,-0.2063,-0.2056,-0.205,-0.2053,-0.2051,-0.2041,-0.2044,-0.2047,-0.2008,-0.2008,-0.2008,0,0,-0.2468,-0.2439,-0.2427,-0.24,-0.2359,-0.233,-0.2327,-0.2279,-0.226,-0.2235,-0.2201,-0.2181,-0.2137,-0.211,-0.2091,-0.2103,-0.2079,-0.2096,-0.2117,-0.2109,-0.2111,-0.2114,-0.2119,-0.2121,-0.2096,-0.2096,-0.2096,0,-0.2496,-0.2463,-0.2423,-0.2404,-0.2385,-0.2343,-0.233,-0.2306,-0.2259,-0.2246,-0.2235,-0.2178,-0.2149,-0.2123,-0.2126,-0.2112,-0.2107,-0.2102,-0.2114,-0.2116,-0.2118,-0.2122,-0.2124,-0.2098,-0.2098,-0.2098,-0.2098,0,-0.2499,-0.2477,-0.2471,-0.2427,-0.2407,-0.2391,-0.2349,-0.2333,-0.2309,-0.228,-0.2256,-0.2219,-0.2184,-0.2176,-0.2152,-0.2147,-0.2141,-0.2123,-0.2103,-0.2124,-0.2127,-0.2129,-0.2102,-0.2101,-0.21,-0.21,0,0,-0.2551,-0.2485,-0.2484,-0.2463,-0.2415,-0.2397,-0.2379,-0.2345,-0.2333,-0.2301,-0.2285,-0.2249,-0.2231,-0.2209,-0.2182,-0.2174,-0.2187,-0.2156,-0.2155,-0.2164,-0.218,-0.2195,-0.2198,-0.217,-0.2171,-0.2171,-0.2184,0,-0.2567,-0.2533,-0.2497,-0.2476,-0.2455,-0.2415,-0.24,-0.2369,-0.2342,-0.232,-0.2289,-0.2264,-0.2243,-0.2229,-0.222,-0.2188,-0.219,-0.2186,-0.2156,-0.2155,-0.2168,-0.2199,-0.2215,-0.223,-0.2185,-0.2185,-0.2185,0,-0.2581,-0.2552,-0.2529,-0.2483,-0.2473,-0.246,-0.2426,-0.2405,-0.2369,-0.235,-0.2326,-0.2296,-0.2276,-0.2258,-0.2229,-0.2227,-0.2212,-0.2194,-0.2194,-0.219,-0.2172,-0.2198,-0.2233,-0.2236,-0.2187,-0.2186,-0.2186,0,-0.2623,-0.2577,-0.2558,-0.2541,-0.2487,-0.2479,-0.2456,-0.2419,-0.2401,-0.2371,-0.2359,-0.2327,-0.231,-0.2286,-0.2249,-0.2239,-0.2224,-0.2203,-0.2207,-0.2208,-0.2207,-0.2207,-0.2241,-0.2196,-0.2196,-0.2196,-0.2196,0,-0.2644,-0.2632,-0.2576,-0.2564,-0.2549,-0.2507,-0.2494,-0.2467,-0.2434,-0.2417,-0.238,-0.2364,-0.2316,-0.2294,-0.2264,-0.2245,-0.2237,-0.2221,-0.2214,-0.2225,-0.2228,-0.2216,-0.2214,-0.2196,-0.2196,-0.2196,-0.2196,0,-0.2689,-0.265,-0.2627,-0.2577,-0.2565,-0.2556,-0.2513,-0.25,-0.2471,-0.2449,-0.2441,-0.2395,-0.2368,-0.2328,-0.2288,-0.2269,-0.2254,-0.2241,-0.2267,-0.2262,-0.227,-0.227,-0.2298,-0.2299,-0.2253,-0.2253,-0.2253,0,-0.2706,-0.2696,-0.2645,-0.2631,-0.2609,-0.2586,-0.2568,-0.2526,-0.2508,-0.2466,-0.2458,-0.2428,-0.2402,-0.2359,-0.2322,-0.2292,-0.2279,-0.229,-0.2274,-0.2286,-0.228,-0.2281,-0.228,-0.2295,-0.2296,-0.2296,-0.2297,0,-0.2741,-0.2722,-0.2697,-0.2665,-0.2644,-0.2617,-0.2589,-0.2579,-0.2531,-0.2513,-0.2484,-0.2464,-0.2424,-0.2394,-0.2359,-0.2334,-0.2308,-0.2302,-0.2302,-0.2314,-0.2329,-0.2322,-0.2279,-0.2302,-0.2301,-0.2301,-0.2301,-0.23,-0.2772,-0.2761,-0.2724,-0.2698,-0.2672,-0.2646,-0.2631,-0.26,-0.2576,-0.254,-0.2516,-0.2489,-0.2453,-0.2403,-0.238,-0.2358,-0.2347,-0.2346,-0.2346,-0.2347,-0.2351,-0.2332,-0.2351,-0.2351,-0.2351,-0.2351,-0.2351,0,-0.2806,-0.278,-0.2756,-0.2717,-0.2696,-0.2672,-0.2639,-0.2623,-0.26,-0.2569,-0.2544,-0.2511,-0.2482,-0.2443,-0.2411,-0.2402,-0.2389,-0.2395,-0.2396,-0.2391,-0.2363,-0.2367,-0.2406,-0.2406,-0.2406,-0.2406,-0.2406,-0.2406,-0.2821,-0.2802,-0.2779,-0.2746,-0.272,-0.2694,-0.2677,-0.2653,-0.2628,-0.2593,-0.2569,-0.2544,-0.2509,-0.2474,-0.2447,-0.2436,-0.2427,-0.2437,-0.2422,-0.2397,-0.2392,-0.2388,-0.2391,-0.2435,-0.2435,-0.2452,-0.2452,-0.2452]},{"header":{"parameterUnit":"m.s-1","parameterCategory":1,"la1":30.2991,"la2":30.254,"lo1":-89.0895,"lo2":-89.0444,"dy":0.0017,"dx":0.0017,"nx":28,"ny":28,"refTime":"2024-11-23T09:00:00:Z","depth":0,"parameterNumber":3,"parameterNumberName":"V-component_of_WINDS"},"data":[0,0,0,0,0,0,0,0,0,0,0,0,0,0,0,0,0,0,0,0,0,0,0,0,0,0,0,0,0,0,0,0,0,0,0,0,0,0,0,0,0,0,0,0,0,0,0,0,0,0,0,0,0,0,0,0,0,0,0.4723,0.4722,0,0.4619,0.4617,0.4616,0.4583,0.4583,0.4584,0.4584,0.4475,0.4472,0.4468,0,0,0,0,0,0,0,0,0,0,0,0,0,0.4892,0.4889,0.4723,0.4722,0.472,0.4619,0.4617,0.4616,0.4583,0.4583,0.4584,0.4585,0.4476,0.4472,0.4468,0,0,0,0,0,0,0,0,0,0,0,0,0,0.4806,0.4888,0.4723,0.4692,0.4688,0.4619,0.4617,0.4615,0.4583,0.4583,0.4584,0.4585,0.4477,0.4472,0.4467,0.4422,0,0,0.4452,0.445,0,0,0,0,0,0,0,0,0.4811,0.48,0.4698,0.4694,0.4689,0.4615,0.4637,0.455,0.4582,0.4622,0.4584,0.4585,0.4521,0.4512,0.4491,0.4417,0.4412,0.4452,0.4449,0.4446,0.4445,0,0,0,0,0,0,0,0.4817,0.4804,0.4682,0.4696,0.4691,0.4682,0.4671,0.462,0.4569,0.4619,0.4616,0.4605,0.4518,0.4496,0.4488,0.441,0.4452,0.4447,0.4444,0.4442,0.4292,0.4292,0,0,0,0,0,0,0.4828,0.4809,0.4685,0.4678,0.4753,0.4678,0.4666,0.4638,0.4569,0.4559,0.4604,0.4603,0.4504,0.4494,0.4484,0.4425,0.4446,0.4442,0.4439,0.4293,0.4292,0.4291,0,0,0,0,0,0,0.4832,0.4818,0.4689,0.4743,0.4726,0.4675,0.4644,0.4635,0.4612,0.4558,0.4548,0.459,0.4504,0.4491,0.4437,0.4421,0.4439,0.4435,0.4295,0.4293,0.4292,0.4307,0,0,0,0,0,0,0.4837,0.4819,0.4802,0.4743,0.4723,0.4645,0.4643,0.4633,0.4604,0.4602,0.4543,0.4533,0.4504,0.4445,0.4432,0.4414,0.4431,0.4296,0.4294,0.4292,0.4308,0.4306,0.4305,0,0,0,0,0,0.4843,0.481,0.4801,0.4786,0.47,0.4644,0.4633,0.46,0.4603,0.4584,0.455,0.4535,0.4425,0.444,0.4425,0.4405,0.4297,0.4294,0.4292,0.4308,0.4307,0.4305,0,0,0,0,0,0,0.4867,0.4801,0.4791,0.4738,0.4697,0.4639,0.4614,0.4599,0.4556,0.4556,0.4517,0.4504,0.4453,0.4424,0.4441,0.4357,0.436,0.4355,0.4377,0.4375,0.4374,0.4381,0.4427,0,0,0,0,0,0.4866,0.4826,0.4771,0.4729,0.471,0.4666,0.464,0.4618,0.4574,0.4556,0.4517,0.4474,0.443,0.4401,0.4357,0.4304,0.429,0.4283,0.4282,0.4281,0.4276,0.4245,0.4241,0.4284,0.4284,0.4284,0,0,0.4863,0.4823,0.48,0.4733,0.4699,0.4658,0.4651,0.4608,0.4577,0.4549,0.4496,0.4466,0.4416,0.4362,0.4336,0.4336,0.4262,0.4278,0.4278,0.4274,0.4243,0.4239,0.4235,0.4283,0.4283,0.4283,0,0,0.4837,0.4803,0.4764,0.473,0.4679,0.465,0.4641,0.4585,0.4564,0.4511,0.4489,0.4452,0.4376,0.4341,0.4313,0.4275,0.4259,0.4262,0.4254,0.4224,0.422,0.4217,0.4202,0.4197,0.4258,0.4258,0.4258,0,0.484,0.4778,0.4746,0.4704,0.4675,0.4649,0.4609,0.4578,0.4514,0.4494,0.4496,0.4401,0.4365,0.4302,0.4293,0.4272,0.4259,0.4267,0.4224,0.422,0.4217,0.4202,0.4196,0.4258,0.4258,0.4258,0.4258,0,0.4783,0.4741,0.4715,0.4656,0.4624,0.4583,0.4544,0.4516,0.4498,0.4469,0.4414,0.437,0.4317,0.4301,0.4282,0.4235,0.4237,0.4232,0.4233,0.4213,0.4199,0.4193,0.4259,0.4259,0.4258,0.4258,0,0,0.4767,0.4691,0.4682,0.4655,0.4597,0.4563,0.4521,0.447,0.4445,0.4403,0.4366,0.4304,0.4298,0.4267,0.4244,0.4218,0.4189,0.4216,0.4214,0.4211,0.4133,0.4136,0.413,0.418,0.4179,0.4178,0.4137,0,0.4732,0.4657,0.4627,0.4565,0.4525,0.4501,0.4464,0.4424,0.4396,0.4357,0.4326,0.4282,0.4279,0.426,0.4233,0.4198,0.4173,0.4201,0.4143,0.4141,0.4155,0.4122,0.4125,0.4089,0.4131,0.413,0.4129,0,0.4681,0.4639,0.4573,0.452,0.4502,0.447,0.442,0.4384,0.4338,0.432,0.4285,0.4264,0.4219,0.4225,0.4161,0.4181,0.4156,0.4135,0.4133,0.4125,0.4133,0.4111,0.4076,0.407,0.412,0.4121,0.4121,0,0.4674,0.4601,0.4552,0.453,0.4467,0.4444,0.4417,0.4372,0.4343,0.43,0.4281,0.4233,0.4206,0.4169,0.4135,0.4144,0.4074,0.4078,0.4056,0.4056,0.404,0.4041,0.3999,0.4027,0.4028,0.4028,0.4028,0,0.4637,0.4597,0.4548,0.4518,0.4472,0.4439,0.4395,0.4366,0.4326,0.4289,0.4266,0.4232,0.419,0.4151,0.4124,0.4074,0.4063,0.4045,0.4038,0.4046,0.4048,0.4028,0.4028,0.4026,0.4026,0.4027,0.4027,0,0.462,0.4586,0.4531,0.4477,0.4462,0.4431,0.4384,0.4353,0.4325,0.4278,0.4266,0.4221,0.4172,0.4136,0.4074,0.4056,0.4002,0.3996,0.4018,0.4014,0.3993,0.3995,0.3934,0.3923,0.3961,0.3961,0.3961,0,0.4598,0.4567,0.451,0.4484,0.4457,0.4415,0.4386,0.4352,0.4322,0.4268,0.4244,0.4194,0.4153,0.4077,0.4038,0.399,0.3981,0.3963,0.3974,0.3982,0.3979,0.398,0.3976,0.3961,0.3961,0.3961,0.3961,0,0.4561,0.4546,0.4505,0.4458,0.4424,0.4385,0.4346,0.4326,0.4285,0.4252,0.4203,0.4171,0.4108,0.4059,0.4007,0.3978,0.3962,0.3958,0.395,0.3957,0.397,0.3961,0.4012,0.3959,0.3959,0.3959,0.3959,0.3959,0.454,0.4511,0.4466,0.4421,0.4388,0.4352,0.4321,0.4289,0.4248,0.4194,0.4177,0.4126,0.4081,0.401,0.398,0.3939,0.3939,0.3928,0.3924,0.3922,0.3922,0.3978,0.393,0.393,0.393,0.393,0.393,0,0.45,0.4471,0.443,0.4376,0.4341,0.4331,0.4287,0.4257,0.4213,0.4173,0.4133,0.4077,0.4029,0.3987,0.3937,0.3912,0.3904,0.39,0.3901,0.3894,0.3926,0.3937,0.3908,0.3908,0.3908,0.3908,0.3908,0.3908,0.4475,0.4426,0.4405,0.4339,0.431,0.426,0.4236,0.4202,0.417,0.4108,0.4069,0.4042,0.4001,0.3948,0.3904,0.3893,0.3874,0.3873,0.3859,0.3889,0.3892,0.3894,0.3904,0.3869,0.3869,0.3831,0.383,0.383]}]]